Location: Unspecified
(33.6682°S, 0.0000°E)
Time: 04:43:30
(UTC+00:00)

S-56A Canister/Altair - Pass Details

Date: 26 June 2019
Orbit: 632 x 2500 km, 38.9° (Epoch: 17 July)

Event Time Altitude Azimuth Distance (km) Brightness Sun altitude
Exits shadow 02:48:04 30° 110° (ESE) 2,563 10.3 -52.5°
Drops below altitude 10° 02:53:13 10° 111° (ESE) 4,204 11.7 -51.5°
Sets 02:57:16 0° 111° (ESE) 5,477 12.5 -50.6°
